Wind_Speed
44 44 44 44 44 43 43 43 43 43 44 44 45 46 46 47 48 49 50 50 51 51 51 51 51 52 54 55 55 55 55 55 56 57 59 60 61 62 62 62 62 63 64 66 67 69 70 71 72 73 75 77 78 79 79 78 76 75 75 74 73 73 72 72 72 70 66 69 73 75 78 80 81 83 86 86 87 89 92 95 98 100 102 105 106
46 46 45 45 45 45 45 45 44 45 45 46 47 47 48 49 50 51 52 52 52 52 52 52 53 54 55 56 56 55 55 55 56 58 60 61 62 62 62 63 63 64 66 67 69 70 71 72 73 75 77 78 78 78 77 76 75 74 74 73 72 73 74 75 75 75 72 71 74 78 81 84 86 88 91 93 93 94 96 98 101 103 105 108 110
46 46 46 46 46 46 46 46 47 47 48 48 49 50 51 52 52 52 53 53 53 53 54 54 55 56 56 56 55 55 55 56 58 59 61 62 62 62 62 63 64 66 68 69 70 71 72 73 75 77 78 78 77 76 75 74 73 73 72 72 73 74 76 78 78 79 79 77 78 81 83 86 89 92 95 97 99 100 101 103 105 106 107 109 112
47 47 47 47 48 48 48 48 49 49 50 50 51 52 52 53 53 53 54 54 54 54 55 56 56 56 56 55 54 54 55 57 59 61 61 62 62 63 63 65 67 68 69 70 71 72 74 75 77 77 77 76 75 74 73 73 72 71 71 72 75 76 77 80 81 83 84 83 83 85 88 90 93 96 99 101 103 104 106 107 109 110 111 112 113
47 47 47 48 48 49 49 50 50 51 51 52 52 52 53 53 54 54 55 55 55 55 56 56 56 55 54 53 54 55 57 59 60 61 62 62 63 64 66 67 68 69 70 71 73 74 75 77 77 76 75 74 74 73 72 71 70 71 73 74 76 77 79 82 84 86 88 89 89 90 92 95 97 99 102 105 107 108 110 111 111 112 113 114 113
47 47 48 48 48 49 50 50 51 51 52 52 52 53 53 54 54 55 55 55 56 56 56 56 54 53 53 54 56 58 59 60 61 62 63 64 65 66 67 68 69 70 71 73 74 76 76 76 75 74 73 73 73 72 70 70 71 72 74 75 77 79 81 84 86 88 90 92 94 95 96 98 101 103 105 108 110 112 114 114 114 113 114 113 113
48 48 48 48 49 50 50 50 51 51 52 52 52 53 53 54 54 55 55 56 56 56 55 54 53 53 54 56 58 59 60 61 62 63 64 65 66 67 68 70 71 72 73 74 76 76 76 75 74 73 73 72 71 70 70 70 72 74 75 77 79 81 83 85 88 90 92 94 96 98 100 102 104 106 107 109 111 114 116 117 117 116 115 114 113
47 47 47 48 48 49 49 49 50 50 51 51 52 53 53 54 54 55 55 55 54 54 53 53 53 55 57 58 59 60 61 62 63 65 66 66 67 68 70 71 72 73 75 76 76 75 74 73 73 73 72 71 70 69 71 72 73 74 77 79 81 83 85 88 90 92 94 96 99 101 102 104 106 108 109 111 113 114 116 118 118 117 116 114 113
45 46 46 47 47 48 48 49 49 50 50 51 52 52 53 54 54 54 54 54 53 53 53 54 55 57 58 59 60 61 63 64 65 65 66 67 68 70 71 72 73 75 76 75 74 73 73 73 73 72 70 70 70 71 72 73 74 76 79 82 84 86 87 90 92 94 96 98 100 102 104 105 107 110 111 113 115 115 116 116 116 116 116 114 111
46 47 48 48 49 49 49 50 50 50 51 52 52 53 54 54 54 54 54 54 54 54 55 56 56 57 59 60 62 63 64 64 65 66 68 69 70 71 72 73 75 75 74 73 73 73 73 72 71 70 69 70 71 72 73 75 77 79 82 84 86 88 90 91 93 96 97 99 101 104 106 107 109 111 113 114 115 115 114 114 115 116 115 113 108
51 51 51 51 50 50 50 50 51 51 52 53 53 54 54 54 54 54 54 55 55 55 56 57 57 59 60 62 63 64 64 65 66 68 69 71 71 72 73 74 73 73 72 72 72 72 72 71 69 69 70 71 72 73 75 77 79 82 84 86 88 90 92 93 95 97 99 101 102 105 107 108 110 111 113 114 114 113 113 114 115 114 112 110 106
53 53 52 52 51 51 51 51 52 52 53 53 54 54 54 54 55 55 55 55 56 56 57 58 60 61 62 63 63 64 65 67 68 70 71 72 72 73 73 72 71 71 71 72 72 71 70 69 69 69 70 71 73 74 77 79 81 83 85 87 89 91 93 94 96 98 100 102 103 105 107 109 111 112 113 113 113 113 113 113 112 110 108 105 104
52 52 52 51 51 51 52 52 52 53 53 54 54 54 55 55 55 55 56 56 57 58 59 60 61 62 62 63 64 66 68 69 71 72 72 72 72 72 71 71 70 71 71 72 71 69 68 68 69 70 71 73 74 76 78 80 82 84 86 88 90 91 93 95 97 99 101 103 104 105 108 110 111 111 111 112 113 113 113 111 109 106 104 103 103
51 51 51 51 52 52 52 52 53 53 53 54 54 55 55 55 56 56 57 58 59 60 61 61 62 62 63 65 67 68 70 71 72 72 72 71 70 70 70 70 71 71 72 71 70 68 67 68 69 71 73 75 76 78 80 81 83 85 87 88 90 92 94 95 97 99 101 103 104 106 107 109 110 110 110 111 112 112 111 108 106 105 103 103 103
51 51 52 52 52 52 53 53 53 54 54 54 55 55 55 55 56 58 59 60 61 61 62 62 63 64 66 67 69 71 71 72 71 70 69 69 69 69 70 70 71 71 71 70 68 67 68 69 71 73 75 76 78 80 81 83 84 86 87 89 90 92 94 95 97 99 100 102 104 106 106 107 108 109 109 110 110 109 108 106 104 104 104 103 102
52 52 53 53 53 53 53 53 54 54 54 54 55 55 56 57 59 60 60 61 61 62 63 64 65 67 69 70 71 71 71 70 69 68 67 68 69 69 70 71 71 71 70 69 68 68 69 71 73 75 76 78 80 81 83 84 85 87 88 89 90 92 93 95 96 98 100 101 103 104 104 105 106 107 108 109 109 107 105 103 102 102 103 102 100
53 53 53 53 53 53 53 53 54 54 55 55 56 57 58 59 60 60 61 61 62 63 65 67 68 70 71 71 70 69 68 67 66 66 67 68 70 70 70 70 70 70 69 68 69 70 72 73 75 76 78 79 81 83 84 85 87 87 88 89 90 91 92 94 96 97 99 100 101 101 102 103 104 105 106 107 106 105 103 101 100 101 102 101 98
53 52 52 52 52 53 53 54 55 55 56 57 58 59 59 60 60 61 61 62 64 66 67 69 70 70 70 69 68 67 67 66 66 67 68 69 70 70 69 69 69 68 68 69 71 72 74 75 76 77 79 81 83 84 86 87 88 89 89 90 90 91 92 94 95 96 98 98 99 100 101 102 103 104 104 103 102 102 101 100 100 100 99 97 93
51 51 51 52 53 53 54 55 56 56 57 58 58 59 60 61 61 62 63 65 66 68 69 69 69 68 67 67 66 66 66 67 67 68 69 69 69 69 68 68 67 68 69 70 72 74 75 76 77 79 81 82 84 86 87 88 89 89 90 90 91 92 93 95 96 97 98 98 99 99 100 101 102 101 100 98 97 97 97 98 98 98 96 92 88
50 51 52 52 53 54 55 56 57 57 58 59 60 61 61 62 63 64 66 67 68 68 68 67 67 66 66 66 66 66 67 67 68 69 69 68 68 68 68 67 68 69 70 72 73 74 75 77 79 81 82 84 86 87 88 89 89 89 90 90 92 93 94 96 97 98 99 99 99 100 100 100 100 98 96 94 92 92 93 93 94 93 91 87 84
51 52 53 54 55 56 57 58 58 59 60 61 61 62 63 64 65 66 67 67 67 66 66 65 65 65 66 66 67 67 68 68 69 68 68 68 67 67 67 68 68 70 71 73 74 75 76 78 80 82 83 85 86 87 88 88 89 89 90 92 93 95 96 97 97 98 98 98 99 99 98 98 97 95 93 91 90 89 89 89 90 88 85 82 81
53 54 55 56 57 57 58 59 60 60 61 62 63 63 64 65 66 66 66 65 64 64 64 65 65 66 66 67 67 67 68 68 68 68 68 68 67 67 68 68 70 71 72 73 74 76 78 79 81 83 84 86 86 87 87 88 89 90 91 93 94 95 96 97 97 97 97 97 96 96 96 96 95 93 91 89 88 88 88 87 86 83 79 77 77
55 55 56 57 57 58 59 60 60 61 62 63 64 64 64 64 64 63 63 63 63 64 64 65 66 66 67 67 67 67 66 66 67 68 68 68 67 68 69 70 71 72 73 74 75 77 79 81 82 84 85 86 86 87 87 88 89 91 92 93 94 95 96 96 96 95 95 94 94 93 94 94 93 91 89 88 87 87 87 86 82 78 74 71 72
55 56 57 58 58 59 60 61 62 63 63 63 62 62 61 61 60 61 62 62 63 64 65 66 67 67 66 65 65 65 66 67 68 69 68 67 67 69 70 71 72 73 74 75 77 79 80 82 83 84 85 85 86 86 87 89 90 91 92 93 94 95 95 94 94 93 92 92 91 91 91 91 91 90 88 87 87 87 86 84 79 73 70 68 68
56 57 58 59 59 60 60 60 60 59 59 58 58 58 58 59 60 61 62 63 64 65 66 66 66 65 64 63 63 65 66 68 68 68 67 68 68 70 71 72 73 74 75 77 79 80 82 83 84 85 85 85 86 87 88 89 90 90 91 93 94 94 93 92 91 90 89 89 88 89 89 88 88 88 87 87 87 86 85 82 76 70 66 65 65
55 55 56 56 56 56 56 55 55 55 55 56 57 57 58 60 61 62 63 64 64 65 65 64 63 62 62 63 64 65 67 68 68 68 68 68 69 70 72 73 75 76 77 79 80 81 83 84 84 84 85 85 86 87 87 88 89 90 92 93 92 92 91 90 89 88 87 87 86 86 86 85 85 85 86 86 86 85 84 80 74 67 64 62 62
52 52 52 53 53 53 54 54 55 55 56 56 58 59 60 61 62 62 63 63 63 62 61 61 60 61 62 63 64 66 67 67 68 68 68 69 70 71 73 75 76 77 78 80 81 82 83 84 84 84 85 85 86 87 87 88 89 91 91 91 90 89 88 88 87 86 85 84 83 82 82 82 83 83 83 84 85 84 83 79 72 65 62 61 60
52 52 53 54 54 54 55 55 56 56 57 58 58 59 60 60 60 60 60 60 60 60 59 60 60 61 62 63 65 66 67 67 68 68 68 69 71 72 74 76 77 78 80 81 82 83 83 84 84 84 85 85 86 86 87 88 89 90 89 88 87 87 86 85 84 84 83 82 80 79 79 79 81 81 82 82 83 83 81 76 69 63 61 60 59
54 54 55 55 55 55 55 56 56 56 57 57 57 57 57 58 58 58 58 58 58 59 60 60 61 62 63 64 65 66 67 68 68 69 69 70 72 74 76 77 78 80 81 82 83 83 83 83 84 84 84 85 85 86 87 88 88 88 87 86 86 85 84 83 82 81 80 78 77 76 76 78 79 80 80 81 81 81 79 73 65 60 59 58 58
55 55 55 55 55 55 55 55 55 55 55 55 56 56 56 56 57 57 57 58 59 59 60 61 61 62 63 65 66 67 68 69 69 70 70 71 73 76 77 79 80 81 82 83 83 83 83 83 83 83 84 85 85 86 86 87 87 87 86 85 85 84 83 81 80 78 77 75 72 72 74 76 78 79 79 80 80 79 77 71 63 59 57 57 56
56 56 56 55 55 55 55 55 55 55 55 55 55 56 56 56 57 57 58 58 59 60 61 62 63 64 65 66 67 68 68 69 71 71 71 73 76 78 79 80 81 82 82 83 82 82 82 83 83 83 84 85 86 86 86 86 86 86 85 84 83 82 80 79 77 76 74 71 69 70 72 75 77 78 78 78 79 78 75 68 60 56 56 56 55
56 56 56 56 56 55 55 55 54 55 55 55 56 56 57 57 57 58 59 59 61 62 63 63 64 65 65 66 67 68 69 71 73 73 73 75 78 79 80 82 82 82 82 82 82 82 82 82 83 84 86 86 86 86 86 86 86 85 83 82 81 79 78 76 75 74 71 67 67 68 71 74 76 76 76 77 77 76 72 65 58 54 54 54 55
56 56 56 56 56 55 55 55 55 56 56 56 57 57 57 57 58 59 60 61 62 63 64 64 64 65 66 67 69 70 72 73 74 74 75 77 79 80 81 82 82 82 82 82 82 82 82 83 84 86 86 86 86 86 86 85 84 83 81 79 78 76 75 74 73 70 67 65 65 67 70 73 74 74 75 76 76 74 70 63 57 53 51 52 53
55 55 55 55 55 55 55 55 55 56 56 57 57 57 58 59 60 61 62 62 62 63 64 65 66 67 68 69 71 72 73 75 75 75 76 78 80 80 81 81 81 82 82 82 82 82 83 84 85 85 86 86 86 85 85 84 82 80 78 76 75 73 72 71 70 67 64 63 65 67 69 72 73 73 73 74 75 72 67 61 55 51 49 50 51
54 55 55 55 55 55 56 56 56 57 57 57 58 58 59 60 61 61 62 62 63 64 65 66 68 69 70 71 73 74 75 76 76 76 77 79 80 80 81 81 81 81 81 81 82 83 84 84 85 85 85 85 85 85 83 81 78 76 74 72 71 70 69 69 67 64 62 63 65 66 69 72 72 72 72 73 73 70 63 58 53 49 47 48 49
56 56 56 56 57 57 57 58 58 59 59 59 59 60 60 61 61 62 62 63 64 65 67 68 70 71 72 73 74 75 76 77 77 77 78 80 81 81 81 81 81 81 82 82 83 83 84 84 85 85 85 85 85 83 81 78 74 72 70 69 67 67 67 67 65 62 61 63 64 66 69 71 71 71 71 72 72 67 60 55 51 48 45 46 47
57 57 58 58 59 59 59 60 60 60 60 60 60 60 61 61 62 63 64 65 66 67 69 70 72 73 74 75 76 76 77 78 78 78 79 80 81 81 81 81 81 82 82 83 83 84 84 85 85 85 85 84 82 80 77 74 70 68 66 65 64 65 66 66 64 62 61 63 64 66 68 71 70 70 70 71 69 64 57 52 49 46 44 44 45
59 59 60 60 60 60 61 61 61 61 61 61 61 61 62 63 64 65 66 67 69 70 71 72 73 74 75 76 77 78 79 79 80 80 80 80 81 81 81 81 82 82 83 83 84 84 85 85 85 84 83 82 80 77 74 70 66 65 64 63 62 63 65 65 64 63 62 63 64 65 68 70 69 69 70 70 67 62 55 49 46 44 43 43 43
60 60 61 61 62 62 62 62 62 62 62 62 62 63 64 66 67 68 68 69 70 71 72 73 74 75 77 78 79 79 80 80 81 81 80 81 82 81 81 81 82 83 83 84 85 85 85 85 84 82 81 79 76 73 70 66 63 63 62 61 60 62 64 65 64 63 62 62 63 65 67 68 68 68 69 69 66 59 52 46 43 41 41 41 42
60 61 61 61 61 61 61 61 62 62 62 63 64 65 67 67 68 69 70 71 72 73 74 75 76 77 78 79 80 80 81 82 82 81 81 81 82 83 83 82 83 83 84 85 85 85 84 83 82 80 77 75 73 70 66 63 62 61 61 60 59 61 63 65 64 63 62 62 63 65 67 67 67 67 68 68 64 57 49 44 40 38 37 39 41
60 60 60 60 60 60 61 61 62 63 64 65 67 68 68 69 70 72 72 73 74 75 76 77 78 79 80 81 81 82 82 83 82 82 82 82 83 84 85 84 84 84 84 85 84 84 83 82 79 76 73 71 69 66 63 62 62 61 60 60 60 61 63 65 65 63 62 61 62 64 66 66 66 66 67 66 61 55 47 41 37 34 33 35 38
61 61 61 61 62 62 63 64 65 66 67 67 68 69 71 72 73 74 75 75 76 77 77 78 79 81 82 82 83 83 83 83 83 83 83 83 83 84 85 85 84 84 85 85 85 84 81 78 75 71 69 68 66 64 63 64 63 60 58 59 60 61 63 64 64 63 61 61 62 64 65 65 65 65 66 64 59 53 46 40 35 32 30 30 33
65 65 65 65 66 66 66 67 67 68 69 69 70 72 73 75 76 76 77 78 78 79 80 80 81 82 83 83 84 84 84 83 83 83 83 83 83 84 85 85 85 85 85 85 84 81 77 73 70 69 68 67 65 65 65 65 62 58 57 57 59 60 62 63 64 63 60 59 61 64 65 64 64 65 65 63 57 51 45 39 34 30 27 27 28
68 68 68 68 69 69 69 69 70 71 72 73 74 75 76 77 78 79 79 80 81 81 82 82 83 84 84 84 85 84 84 84 84 84 84 84 84 85 86 86 86 85 85 84 82 78 73 68 67 68 68 67 66 66 66 63 60 57 56 55 57 59 61 63 63 62 59 58 60 62 63 63 63 64 64 61 55 49 44 39 33 29 26 25 25
70 70 70 70 71 71 71 72 73 74 76 77 78 78 79 80 80 81 82 83 83 84 84 84 85 85 85 85 85 84 84 84 85 86 86 86 86 86 87 86 86 85 84 81 78 74 69 65 65 67 68 67 67 67 65 62 59 57 55 54 56 58 60 62 62 60 58 57 59 61 62 62 62 63 63 60 54 48 43 38 33 29 25 24 24
73 72 73 73 74 74 75 76 77 79 80 81 81 82 83 83 84 84 85 85 86 86 86 86 86 86 86 85 85 85 85 86 87 88 88 88 87 87 87 86 85 84 81 76 73 71 68 64 64 67 68 69 68 66 63 61 59 57 55 54 56 57 59 61 61 59 57 57 59 60 60 61 61 63 62 58 52 47 42 38 33 30 26 24 23
75 75 76 76 77 78 79 80 82 82 83 84 85 85 86 86 87 87 88 88 88 87 87 87 87 87 87 87 86 87 87 88 89 89 89 88 88 87 87 86 83 80 76 72 70 68 66 64 64 67 68 68 66 64 62 60 59 58 55 55 56 57 59 60 60 58 57 57 59 60 60 60 61 62 61 57 51 45 41 37 33 30 27 24 23
78 78 79 80 81 82 83 84 85 86 87 87 88 88 88 88 89 89 89 88 88 88 88 88 88 88 88 88 88 89 89 90 90 90 89 88 88 87 85 83 81 77 74 70 68 65 63 63 63 65 66 66 65 63 62 61 61 60 57 56 56 57 58 59 58 57 57 58 59 59 59 59 60 62 61 56 50 45 41 37 33 31 28 26 24
81 82 83 84 85 86 87 87 88 89 89 89 89 89 89 89 89 89 88 88 88 88 89 89 89 89 90 90 90 90 90 90 90 89 89 88 87 85 84 82 79 76 72 69 67 66 64 63 63 63 65 66 65 64 64 64 64 62 59 56 56 56 57 58 57 56 56 57 58 59 59 59 60 61 60 55 50 45 42 37 33 31 29 27 26
85 86 87 87 88 89 90 90 90 90 90 90 89 89 89 89 88 88 89 89 89 89 90 90 90 91 91 91 91 91 91 90 89 88 87 86 85 83 81 78 75 73 71 70 70 70 67 64 63 64 66 66 65 65 65 64 62 59 57 56 56 56 57 56 56 56 56 57 58 58 58 59 60 61 59 55 50 46 43 39 34 31 30 29 28
89 89 90 90 90 91 91 91 91 90 90 90 90 90 90 90 89 89 90 90 90 91 91 91 92 92 92 92 92 91 91 90 88 87 85 84 82 80 78 76 74 73 72 72 72 71 68 65 65 66 66 65 64 62 60 58 56 55 55 55 55 56 56 55 55 56 56 57 57 58 58 59 60 61 59 55 50 47 44 40 35 32 30 29 29
Wind_Direction
262 263 265 266 267 269 270 270 271 272 272 273 274 276 277 277 278 278 279 280 280 281 282 283 285 286 287 288 288 289 289 290 292 294 296 296 297 298 298 298 299 300 301 302 303 303 304 305 306 306 307 308 309 309 310 310 310 310 310 310 310 310 310 310 310 311 311 311 311 311 311 312 313 312 312 312 312 312 312 312 312 311 311 310 310
262 263 264 265 266 267 269 270 271 272 273 274 275 275 276 277 277 278 279 279 280 281 282 283 284 285 286 287 288 288 289 291 293 295 296 296 297 297 298 298 299 300 301 302 302 303 304 305 306 307 307 308 309 309 309 310 310 310 310 310 310 310 310 310 311 311 312 312 313 313 313 314 314 314 313 313 313 313 312 312 312 311 311 311 311
261 263 264 265 266 267 268 269 270 271 272 273 273 274 275 276 277 278 278 279 280 281 282 283 284 285 286 287 287 288 290 292 294 295 295 296 297 297 298 298 299 300 301 302 303 304 305 305 306 307 308 308 308 309 309 310 310 310 310 310 310 311 311 312 313 313 314 315 315 315 315 315 315 314 314 314 314 314 313 313 312 312 312 312 312
261 262 263 264 265 266 267 268 269 270 271 271 272 273 274 275 277 278 278 279 280 280 281 282 283 284 286 287 288 289 291 293 294 295 295 296 296 297 298 299 299 300 301 302 303 304 305 306 307 307 307 307 308 309 310 310 310 309 310 310 311 312 313 314 315 315 316 316 317 316 316 316 315 315 314 314 314 314 314 314 314 314 314 314 314
262 262 263 264 265 266 267 268 269 270 271 272 273 274 275 276 276 277 278 278 279 280 281 282 283 285 286 287 289 290 292 293 293 294 295 296 296 297 298 299 300 301 302 303 304 305 305 306 306 307 307 308 309 309 310 309 309 310 310 311 312 313 314 315 315 316 316 317 317 317 317 316 316 315 315 315 315 315 314 315 315 315 315 315 316
262 263 264 265 266 266 267 268 269 270 271 272 272 273 274 275 276 276 277 278 278 279 281 282 284 285 286 288 289 291 292 292 293 294 295 296 297 298 299 300 301 302 303 303 304 305 305 306 306 306 307 308 309 309 309 309 310 310 311 312 313 314 315 315 315 316 316 316 316 317 317 316 316 316 316 315 316 316 316 316 316 316 316 317 317
263 263 264 265 265 266 267 267 268 269 270 271 271 272 273 274 275 275 276 277 278 279 281 283 284 285 287 288 289 290 291 292 293 294 295 296 297 298 299 300 301 302 303 303 304 304 305 305 306 307 308 308 308 308 309 309 310 311 312 313 313 314 315 315 315 315 316 316 317 317 317 317 316 316 316 317 317 317 317 317 318 318 318 318 319
262 263 263 264 264 265 266 266 267 268 269 270 271 272 273 273 274 275 276 277 279 280 282 283 284 286 287 289 290 290 291 292 293 295 296 297 297 299 300 301 302 302 303 303 304 304 305 306 307 307 308 308 308 308 309 309 310 311 312 313 314 314 314 315 315 315 316 317 317 317 317 317 317 317 317 318 318 318 318 318 319 319 320 320 320
262 262 263 264 264 265 266 267 268 269 270 271 271 272 273 274 275 275 277 278 280 281 282 283 285 286 288 289 289 290 291 293 294 295 296 297 298 299 300 301 302 302 303 303 304 305 306 307 307 307 307 307 308 309 309 310 311 312 313 313 314 314 314 315 315 316 316 317 317 317 317 318 318 318 318 319 319 319 320 320 320 320 320 321 321
261 262 263 264 265 266 267 268 269 269 270 271 271 272 273 274 275 276 278 279 280 281 282 284 286 287 288 288 289 291 292 294 294 295 296 297 298 300 300 301 301 302 303 304 305 305 306 307 307 307 307 307 308 309 310 311 312 313 313 314 314 314 315 315 316 316 316 317 317 318 318 319 319 319 319 320 320 321 321 321 321 321 321 321 322
262 263 263 264 265 265 266 267 267 268 269 270 271 272 272 274 275 277 278 279 280 282 284 285 286 287 288 289 290 292 293 294 295 295 297 298 299 299 300 301 301 302 303 304 305 305 306 306 306 306 307 308 309 310 311 312 313 313 313 314 314 314 315 316 316 316 317 318 318 319 319 319 320 320 320 321 322 322 322 322 322 322 322 323 323
263 263 263 263 264 264 264 265 266 267 268 269 270 272 273 275 276 278 279 280 281 283 284 285 286 287 289 290 291 292 293 294 295 296 297 298 299 299 300 301 302 302 303 304 304 305 305 305 306 306 307 308 309 310 311 312 313 313 313 314 314 315 315 316 316 317 318 319 319 319 320 320 321 321 322 322 322 322 323 323 323 323 323 324 324
263 263 263 263 263 263 264 265 267 268 269 270 272 273 275 276 277 278 279 280 282 283 285 286 287 288 289 290 291 293 294 295 296 297 297 298 299 299 300 301 302 302 303 303 303 304 304 305 306 306 307 308 309 310 311 312 312 313 313 314 314 315 316 316 317 318 319 319 320 320 320 321 322 322 323 322 323 323 324 324 324 324 324 325 325
262 262 262 262 263 264 265 266 268 269 270 272 273 275 276 277 277 278 280 281 283 284 286 287 288 289 290 291 292 293 294 295 296 297 298 298 299 299 300 301 302 302 302 303 303 303 304 305 306 306 307 308 309 310 311 312 312 313 313 314 314 315 316 317 318 319 319 320 320 321 321 322 323 323 323 323 324 324 325 325 325 325 325 326 326
261 261 262 263 264 265 267 268 270 271 272 274 274 275 276 277 278 279 281 283 284 285 286 287 288 289 291 292 293 294 294 295 296 297 297 298 298 299 300 301 302 302 302 302 302 303 304 305 305 306 307 309 309 310 311 311 312 312 313 313 314 315 317 318 318 319 319 320 320 321 322 322 323 323 324 324 324 325 325 326 326 326 326 326 327
261 262 264 265 267 268 270 271 272 273 274 275 275 276 277 278 279 281 282 284 285 286 287 288 289 291 292 292 293 294 294 295 296 297 297 298 298 299 300 301 302 301 301 301 302 303 304 304 305 307 308 309 309 310 311 311 312 312 312 313 315 316 317 318 318 319 319 320 321 322 322 323 323 324 324 324 325 325 326 326 326 326 326 326 326
262 264 266 268 270 271 272 272 273 273 274 274 275 276 278 279 281 282 283 284 286 287 288 289 290 291 292 292 293 293 294 295 296 296 297 298 299 300 301 301 301 300 300 301 302 303 304 305 306 307 308 309 309 310 310 311 311 311 312 314 315 317 317 318 318 319 320 321 321 322 322 323 324 325 325 325 325 326 326 326 326 326 326 326 325
264 267 268 270 270 271 271 271 272 273 274 275 276 277 279 280 281 283 284 285 287 288 289 289 290 290 291 292 292 293 294 295 296 296 297 298 299 300 300 300 299 299 300 302 303 304 304 306 307 308 308 308 309 309 310 310 310 312 313 315 316 316 317 317 318 319 320 321 321 322 323 323 324 325 325 326 326 326 326 326 327 326 326 325 325
267 268 269 269 270 270 271 272 273 274 275 276 277 278 279 281 282 284 285 286 287 288 288 289 289 290 290 291 292 293 294 295 296 296 297 298 299 299 299 298 298 299 301 302 303 304 305 306 307 307 307 308 308 309 309 310 311 313 314 315 316 316 317 318 319 319 320 320 321 322 323 324 324 324 325 326 326 326 326 327 327 327 326 325 324
267 268 268 269 270 271 272 272 273 274 275 276 277 279 280 282 283 284 285 286 286 287 287 288 288 289 290 290 291 293 294 295 295 296 297 297 297 297 297 297 298 299 301 302 303 304 305 306 306 307 307 308 308 309 310 311 312 314 314 315 316 316 318 319 319 320 320 321 322 323 323 324 324 324 325 325 326 326 327 327 327 326 325 324 324
266 267 268 268 269 270 270 272 273 274 275 277 278 279 280 282 283 284 284 285 286 286 286 287 287 288 289 290 291 293 294 295 295 295 296 296 296 296 296 297 299 300 301 302 303 304 305 305 306 306 307 307 308 309 311 312 313 314 314 315 316 318 319 319 320 320 321 322 323 324 324 324 324 324 325 325 326 327 327 328 327 326 325 324 324
265 265 266 267 268 269 270 272 273 275 276 277 278 279 280 281 282 283 284 284 284 285 285 286 287 288 289 290 292 293 294 294 294 294 294 294 295 296 296 298 299 300 301 302 303 303 304 304 305 306 306 307 309 310 311 312 313 314 315 316 317 318 319 319 320 321 322 323 324 324 324 324 324 324 325 326 326 327 328 329 328 326 325 324 324
265 266 267 268 269 270 272 273 274 275 276 277 278 279 280 281 281 282 282 283 283 284 285 286 287 288 289 291 292 292 293 293 292 292 293 294 295 296 297 298 299 299 300 301 302 303 303 304 305 305 306 308 309 311 311 312 313 314 315 317 317 318 319 320 321 322 323 323 324 324 324 324 324 324 326 327 327 329 330 330 329 327 325 325 325
267 268 269 270 270 271 272 273 274 275 276 277 278 279 279 280 280 281 281 282 283 284 285 286 287 288 290 291 291 291 291 291 290 291 292 294 295 296 297 298 298 299 300 301 301 302 303 303 304 306 307 309 310 311 311 312 313 314 315 316 317 318 320 321 322 322 323 323 323 323 323 324 324 325 327 328 329 330 331 331 329 327 326 326 326
267 268 269 270 270 271 272 273 274 275 276 277 277 278 279 279 280 280 281 282 283 284 285 286 287 288 289 289 289 289 288 289 290 291 293 294 295 296 296 297 298 299 300 301 301 302 303 304 305 307 308 309 310 311 311 312 313 314 315 317 318 319 320 321 322 322 322 323 323 323 323 324 325 326 328 329 330 331 332 331 330 327 326 327 328
268 269 270 270 271 272 273 274 275 275 276 277 277 278 278 279 279 280 281 282 283 284 285 286 287 287 287 287 287 287 287 288 289 291 293 294 294 295 296 297 298 299 300 301 301 302 303 305 306 308 309 310 310 310 311 312 313 314 316 317 319 320 321 321 321 322 322 322 323 323 324 325 326 327 328 329 330 332 332 332 330 327 326 326 328
271 272 273 273 274 274 275 275 276 277 277 277 278 278 278 278 279 280 281 282 282 283 284 285 285 285 285 285 285 286 287 288 290 291 293 294 294 295 296 297 298 299 300 301 302 303 304 306 307 308 309 309 309 310 311 312 314 316 317 318 319 320 320 321 321 321 322 322 323 323 324 325 326 328 329 330 331 332 333 332 330 327 326 327 329
275 276 276 276 277 277 277 277 278 278 277 277 277 277 278 278 279 280 281 281 282 283 283 283 283 283 283 284 285 286 287 289 290 292 293 294 294 295 296 297 298 299 300 301 302 303 305 306 307 308 308 308 309 310 311 313 315 317 318 319 319 320 320 321 321 321 322 322 323 323 324 325 327 328 329 331 331 332 333 333 330 328 327 328 330
278 278 278 278 278 278 278 277 277 277 277 277 277 277 278 279 279 280 280 281 281 281 282 282 282 282 283 284 285 286 288 290 291 292 293 294 295 295 296 297 298 299 300 301 303 304 305 306 306 307 307 308 309 310 313 315 316 317 318 319 319 320 320 321 321 321 321 322 322 323 324 326 328 329 330 331 332 333 333 333 330 328 328 329 331
279 278 278 278 277 277 277 276 276 276 277 277 277 278 279 279 280 280 280 280 280 281 281 281 282 283 284 285 286 287 289 290 291 292 294 295 295 296 297 298 299 300 300 301 302 303 304 305 305 306 307 308 309 311 314 315 316 317 318 318 319 319 320 320 320 321 321 322 322 323 325 327 328 329 330 331 332 333 333 333 331 329 329 330 333
279 279 278 278 278 277 277 277 277 277 278 278 278 279 279 279 279 279 279 280 280 281 281 282 283 284 285 286 287 288 289 291 292 294 295 295 295 296 297 298 299 299 300 301 302 303 303 304 305 306 307 308 310 312 314 315 316 317 318 318 319 319 319 320 320 321 321 321 322 324 326 328 329 330 331 332 333 333 333 333 331 330 330 332 334
279 279 279 278 278 278 278 278 278 278 278 278 279 279 279 279 279 279 280 280 281 281 282 283 284 285 285 287 288 290 292 293 294 296 296 295 295 296 297 298 299 299 300 301 301 302 303 304 305 306 307 309 312 314 315 316 316 317 317 318 318 319 319 320 320 321 321 321 323 325 327 329 330 330 331 332 333 333 333 332 332 331 331 333 335
279 278 278 278 277 277 277 277 277 277 277 277 278 278 278 279 279 279 280 281 281 282 283 284 285 286 288 289 291 292 293 294 295 296 295 295 295 296 297 298 298 299 300 300 301 302 303 304 305 306 308 311 313 314 315 315 316 316 317 317 317 318 319 320 321 321 321 322 323 326 328 329 330 331 331 332 333 333 332 331 331 331 331 334 336
278 277 277 277 276 276 276 276 276 276 276 276 277 277 277 278 279 279 280 281 283 284 285 286 287 288 289 291 291 292 293 294 294 295 295 294 295 296 296 297 298 298 299 300 301 302 303 304 306 308 310 312 313 314 314 315 315 316 316 316 317 318 320 321 322 322 321 322 324 326 328 329 330 331 331 332 333 333 332 330 330 331 332 334 337
277 277 277 276 276 275 275 275 275 275 275 275 276 277 277 278 280 281 282 283 284 286 286 287 288 289 290 291 291 292 293 293 294 294 294 294 295 296 296 297 298 298 299 300 301 302 304 305 307 309 310 312 313 313 314 314 315 315 315 316 317 318 321 323 323 322 321 322 324 325 328 329 330 331 331 333 333 333 331 329 329 330 332 335 337
277 277 276 276 275 275 275 275 275 275 275 275 276 277 278 280 281 283 284 285 286 287 288 288 289 290 290 291 291 292 292 293 294 294 294 294 294 295 296 297 298 299 300 300 302 303 305 306 308 309 310 311 312 312 313 314 315 314 314 315 317 319 321 323 323 322 321 322 323 325 327 329 330 330 331 333 334 332 330 328 328 330 332 335 337
276 275 275 274 274 274 274 274 274 274 275 276 277 279 280 282 284 285 287 287 288 289 289 289 290 290 290 291 291 292 293 293 294 294 294 294 294 295 297 297 298 299 300 301 303 304 305 306 308 309 310 310 310 311 313 314 314 313 313 315 317 319 321 323 323 322 321 322 323 325 327 329 329 330 331 333 334 332 329 327 327 329 331 334 337
274 273 273 273 273 273 273 273 274 275 276 277 279 281 283 285 286 288 289 289 290 290 290 290 290 290 291 291 292 292 293 293 293 294 294 294 295 296 297 297 298 299 300 302 303 304 305 306 307 308 308 309 310 311 313 313 312 312 313 314 316 319 321 323 324 322 321 322 323 324 326 328 329 330 331 333 334 332 328 325 326 328 329 333 336
273 273 272 272 272 272 273 274 275 276 277 279 281 282 284 286 288 289 290 291 291 290 290 290 290 290 290 291 291 292 292 293 293 293 294 294 295 295 296 297 298 299 300 302 303 304 305 306 306 307 307 308 309 311 312 311 310 310 312 314 315 317 320 322 323 322 321 321 322 323 325 327 328 329 332 334 334 331 327 324 324 327 328 330 334
272 272 272 272 272 272 273 274 275 276 278 280 282 284 286 289 291 291 292 291 291 290 290 290 290 290 290 291 291 292 292 292 293 293 294 294 295 295 296 297 298 299 301 302 303 304 304 304 305 306 306 307 308 309 310 309 308 309 311 313 314 315 318 320 322 321 320 321 322 323 324 327 328 329 332 333 333 330 326 322 321 326 328 328 332
273 273 273 273 273 273 274 275 277 279 281 283 285 287 289 291 292 292 292 291 291 290 290 290 290 290 290 290 291 291 291 292 293 293 293 294 295 295 296 298 299 300 301 302 302 302 303 303 304 305 305 305 306 307 307 307 307 308 311 312 312 313 316 319 320 320 320 320 321 322 324 326 327 329 331 333 332 329 325 320 319 323 327 327 329
275 274 274 274 275 276 277 278 280 282 283 285 287 289 290 291 291 292 292 291 290 290 290 289 289 288 289 289 290 290 291 291 292 292 293 294 295 296 297 298 300 300 300 300 301 301 302 303 303 303 303 303 304 305 305 306 306 307 309 309 309 311 314 318 319 319 319 319 320 321 323 325 327 329 331 332 331 328 324 318 315 318 323 324 326
275 275 275 276 276 277 279 280 282 283 285 286 287 289 290 291 291 291 291 290 289 289 288 288 287 287 288 289 289 290 291 292 292 293 294 295 295 296 297 298 298 298 298 299 300 300 300 301 301 300 299 300 301 303 304 305 305 307 308 307 307 309 313 316 317 317 317 318 319 321 323 325 326 328 330 330 329 327 322 316 310 312 317 318 321
276 276 277 277 278 279 281 282 283 284 285 286 287 288 289 290 290 290 289 289 288 288 288 287 287 288 288 289 290 291 292 292 292 293 293 294 294 295 295 296 297 297 297 297 298 298 299 299 297 296 296 298 300 301 303 303 304 305 306 305 305 308 312 315 316 315 315 317 318 320 322 324 325 327 329 329 327 325 321 314 306 306 310 312 313
277 278 279 279 280 281 282 283 284 285 286 286 287 288 288 289 289 289 288 288 288 287 287 287 287 288 288 289 290 290 291 291 291 292 292 293 293 294 294 295 295 295 296 296 296 296 297 296 293 292 294 297 298 299 300 300 301 303 304 304 304 307 311 313 314 314 314 316 318 320 321 323 324 326 327 327 325 323 320 313 304 299 302 305 305
278 279 280 281 281 282 283 284 284 285 285 286 286 287 287 287 288 287 287 287 287 287 287 287 287 287 288 288 288 289 289 290 290 291 291 292 293 293 293 294 294 294 295 295 294 294 294 293 290 289 291 294 297 298 297 298 300 302 303 302 303 306 310 312 313 313 313 315 317 319 321 322 323 325 326 325 323 321 318 312 302 295 293 296 298
279 280 281 281 282 283 284 284 284 285 285 285 286 286 286 286 286 286 286 286 285 285 285 286 286 286 287 287 287 288 288 289 289 290 291 292 292 292 293 293 294 294 294 293 292 292 292 290 288 288 290 293 295 296 295 296 300 303 302 301 302 305 309 311 311 312 313 315 316 319 320 321 322 324 325 323 321 319 317 311 302 292 287 288 290
280 281 281 282 282 283 283 284 284 284 284 284 284 284 284 284 284 284 284 284 284 284 284 285 285 286 286 287 287 288 288 289 290 290 291 291 292 292 292 292 292 292 291 291 290 290 290 288 287 287 289 293 294 294 293 296 300 302 301 300 301 304 307 309 310 311 313 314 316 318 319 320 321 323 323 321 318 317 315 311 302 291 283 280 281
280 280 281 281 282 282 282 283 283 283 283 283 283 283 283 283 283 283 283 283 283 284 284 284 285 285 286 287 287 287 288 289 289 290 290 290 290 290 290 290 290 290 290 290 289 289 288 287 286 287 290 293 294 293 293 295 298 299 299 299 300 303 306 308 310 311 312 314 315 317 318 319 321 322 322 319 316 314 313 309 302 292 284 277 274
280 280 281 281 281 281 281 281 281 281 281 281 281 281 281 281 282 282 282 282 283 283 284 284 284 285 285 286 286 287 287 287 288 288 288 288 288 288 288 288 288 287 286 285 285 285 285 284 285 288 291 293 293 293 294 295 296 296 297 297 298 302 305 307 308 310 311 313 315 316 317 318 320 321 320 317 314 312 311 307 301 293 286 277 271
279 279 279 279 279 280 280 280 280 280 280 281 281 281 281 282 282 282 282 283 283 283 283 284 284 285 285 285 286 286 286 287 287 287 286 286 286 286 285 285 284 283 282 281 281 282 282 282 285 287 290 291 292 294 294 294 294 294 295 295 297 301 304 306 307 309 310 312 314 315 316 317 319 320 319 316 312 311 309 306 298 291 286 280 272
Height
5821 5821 5821 5821 5821 5820 5820 5819 5819 5818 5818 5817 5817 5816 5815 5814 5813 5812 5811 5809 5808 5807 5806 5804 5803 5801 5799 5797 5795 5793 5790 5788 5786 5783 5781 5778 5776 5773 5770 5767 5763 5761 5758 5754 5751 5747 5744 5740 5736 5732 5728 5724 5721 5716 5711 5707 5703 5699 5694 5691 5687 5682 5681 5680 5677 5682 5688 5681 5671 5666 5658 5652 5651 5644 5637 5636 5635 5630 5623 5614 5607 5602 5594 5586 5580
5816 5816 5816 5816 5816 5815 5815 5814 5814 5813 5813 5812 5811 5810 5809 5808 5807 5806 5805 5804 5803 5802 5800 5799 5797 5795 5793 5791 5789 5787 5784 5782 5780 5778 5775 5772 5769 5766 5764 5761 5758 5755 5752 5748 5745 5741 5737 5733 5729 5725 5721 5717 5714 5710 5705 5701 5696 5691 5687 5683 5680 5675 5671 5670 5668 5667 5673 5675 5666 5658 5651 5643 5637 5632 5624 5620 5618 5617 5613 5606 5598 5592 5585 5575 5566
5811 5811 5811 5811 5811 5810 5810 5809 5809 5808 5807 5807 5806 5805 5804 5803 5802 5801 5800 5798 5797 5796 5795 5793 5791 5789 5787 5785 5783 5781 5779 5777 5774 5772 5769 5766 5763 5760 5758 5755 5752 5749 5745 5742 5738 5734 5730 5727 5723 5719 5714 5710 5707 5703 5699 5695 5690 5685 5681 5676 5672 5669 5663 5659 5658 5655 5656 5660 5657 5649 5642 5636 5628 5620 5613 5608 5602 5598 5596 5592 5585 5579 5574 5566 5555
5806 5806 5806 5806 5805 5805 5805 5804 5803 5803 5802 5801 5801 5800 5798 5797 5796 5795 5794 5793 5792 5791 5789 5787 5785 5783 5781 5779 5777 5775 5773 5771 5768 5766 5763 5760 5757 5755 5752 5749 5745 5742 5738 5735 5731 5727 5723 5719 5716 5712 5708 5703 5699 5696 5692 5687 5683 5678 5674 5670 5665 5661 5656 5650 5646 5643 5641 5642 5643 5637 5630 5624 5619 5610 5600 5595 5592 5586 5580 5576 5569 5562 5558 5552 5541
5800 5800 5800 5800 5800 5800 5799 5799 5798 5797 5797 5796 5795 5794 5793 5792 5791 5790 5789 5787 5786 5785 5783 5781 5779 5777 5775 5773 5771 5769 5767 5764 5762 5759 5757 5754 5751 5748 5745 5742 5738 5735 5731 5728 5724 5720 5716 5713 5709 5705 5701 5697 5692 5689 5685 5680 5676 5672 5667 5663 5658 5653 5648 5643 5638 5633 5629 5626 5625 5625 5619 5611 5605 5600 5589 5579 5576 5572 5567 5564 5558 5549 5542 5538 5530
5794 5794 5794 5794 5794 5794 5793 5792 5792 5791 5791 5790 5789 5788 5787 5786 5785 5784 5783 5782 5780 5779 5777 5775 5773 5771 5769 5767 5765 5763 5760 5758 5756 5753 5750 5748 5745 5741 5738 5734 5731 5728 5724 5720 5716 5713 5709 5705 5702 5698 5694 5691 5686 5682 5678 5674 5669 5665 5661 5656 5651 5646 5641 5636 5631 5625 5621 5616 5611 5608 5606 5599 5592 5588 5581 5570 5561 5553 5546 5543 5544 5537 5528 5524 5518
5788 5788 5788 5788 5788 5787 5787 5786 5786 5785 5785 5784 5784 5783 5781 5780 5779 5778 5777 5776 5774 5772 5771 5769 5767 5765 5763 5761 5759 5756 5754 5752 5749 5747 5744 5741 5737 5734 5731 5727 5724 5720 5717 5713 5709 5705 5702 5698 5695 5691 5687 5683 5680 5675 5671 5668 5663 5658 5654 5649 5644 5639 5634 5629 5624 5618 5612 5607 5601 5595 5592 5587 5578 5572 5568 5560 5551 5543 5530 5520 5519 5518 5513 5507 5500
5781 5782 5782 5782 5781 5781 5780 5780 5780 5779 5779 5778 5777 5776 5775 5774 5773 5772 5770 5769 5767 5766 5764 5763 5761 5759 5757 5754 5752 5750 5748 5745 5743 5740 5737 5734 5731 5727 5724 5720 5716 5713 5709 5705 5701 5697 5694 5691 5687 5683 5680 5676 5672 5669 5664 5661 5657 5651 5646 5641 5636 5632 5627 5621 5616 5611 5604 5598 5591 5584 5579 5575 5567 5558 5554 5547 5539 5533 5523 5508 5499 5495 5491 5489 5483
5775 5775 5775 5775 5775 5775 5774 5774 5774 5773 5773 5772 5771 5770 5769 5768 5767 5765 5764 5763 5761 5760 5758 5756 5754 5752 5750 5748 5746 5743 5741 5739 5736 5733 5730 5726 5724 5720 5716 5712 5708 5705 5701 5697 5694 5690 5686 5683 5679 5675 5672 5668 5664 5661 5657 5652 5648 5644 5639 5634 5628 5623 5618 5613 5606 5601 5596 5589 5582 5574 5568 5563 5555 5544 5538 5533 5524 5516 5509 5497 5487 5480 5473 5470 5469
5768 5768 5768 5768 5768 5769 5768 5768 5768 5767 5766 5765 5764 5764 5762 5761 5760 5759 5757 5756 5755 5753 5752 5750 5748 5746 5743 5741 5739 5736 5734 5732 5729 5726 5722 5719 5717 5713 5709 5705 5701 5697 5693 5689 5686 5683 5679 5675 5672 5668 5664 5661 5657 5653 5649 5644 5639 5634 5629 5624 5619 5614 5608 5604 5597 5590 5584 5579 5572 5562 5554 5551 5545 5532 5522 5517 5510 5501 5493 5483 5473 5466 5458 5451 5450
5762 5762 5762 5762 5762 5762 5762 5761 5761 5760 5759 5759 5758 5757 5756 5754 5753 5752 5751 5750 5748 5747 5745 5743 5741 5739 5737 5734 5732 5730 5727 5725 5722 5719 5715 5712 5709 5705 5701 5698 5694 5690 5686 5683 5679 5675 5672 5668 5664 5661 5657 5653 5649 5645 5641 5636 5631 5625 5620 5614 5608 5603 5597 5593 5588 5581 5574 5568 5562 5551 5541 5535 5531 5522 5509 5501 5496 5488 5480 5470 5458 5449 5442 5433 5426
5755 5755 5755 5756 5756 5756 5755 5755 5754 5753 5753 5752 5751 5750 5749 5748 5747 5746 5744 5743 5742 5740 5738 5736 5734 5732 5730 5727 5725 5723 5720 5718 5715 5711 5708 5705 5701 5698 5694 5690 5686 5683 5679 5676 5673 5669 5665 5661 5657 5654 5650 5646 5642 5638 5633 5628 5623 5617 5612 5606 5599 5593 5587 5581 5576 5570 5563 5556 5551 5543 5531 5522 5517 5510 5497 5487 5481 5475 5467 5459 5448 5436 5429 5421 5411
5748 5749 5749 5749 5749 5748 5748 5748 5747 5747 5746 5745 5744 5743 5742 5741 5740 5739 5738 5736 5735 5733 5731 5729 5727 5725 5723 5720 5718 5716 5713 5710 5708 5704 5701 5698 5694 5690 5686 5682 5679 5676 5672 5669 5666 5662 5659 5655 5651 5646 5643 5639 5635 5631 5626 5621 5616 5610 5604 5598 5592 5585 5579 5572 5565 5558 5551 5544 5538 5532 5522 5511 5503 5496 5486 5474 5465 5458 5451 5444 5435 5424 5418 5411 5402
5742 5742 5742 5742 5742 5741 5741 5741 5740 5740 5739 5738 5738 5736 5735 5734 5733 5732 5731 5729 5728 5726 5724 5722 5720 5717 5715 5713 5711 5708 5706 5703 5700 5697 5693 5690 5686 5682 5679 5676 5672 5668 5664 5661 5658 5655 5652 5648 5644 5640 5635 5631 5627 5623 5619 5614 5609 5603 5598 5591 5585 5579 5572 5565 5557 5549 5542 5534 5527 5521 5512 5501 5492 5484 5475 5464 5453 5444 5436 5428 5419 5409 5404 5399 5391
5735 5735 5735 5735 5735 5734 5734 5734 5733 5733 5732 5731 5730 5729 5728 5727 5726 5724 5723 5722 5720 5718 5716 5714 5712 5710 5708 5706 5703 5701 5698 5695 5693 5690 5686 5682 5679 5676 5672 5668 5664 5660 5656 5654 5651 5648 5645 5641 5638 5633 5628 5624 5620 5616 5612 5608 5602 5597 5592 5585 5579 5572 5565 5558 5551 5543 5535 5526 5517 5509 5501 5492 5483 5473 5463 5453 5444 5435 5427 5418 5407 5397 5390 5386 5381
5728 5728 5728 5728 5728 5728 5728 5727 5726 5726 5725 5724 5723 5722 5721 5720 5718 5717 5716 5714 5712 5711 5709 5707 5705 5702 5700 5698 5696 5693 5690 5688 5685 5682 5679 5675 5671 5668 5665 5661 5657 5652 5649 5646 5643 5640 5637 5634 5630 5625 5620 5615 5611 5607 5603 5599 5595 5590 5586 5580 5573 5566 5558 5550 5543 5536 5528 5520 5511 5502 5494 5485 5475 5465 5454 5443 5433 5425 5418 5411 5402 5391 5382 5376 5372
5722 5721 5721 5721 5721 5721 5720 5719 5719 5718 5717 5717 5716 5715 5713 5712 5711 5710 5708 5707 5705 5703 5701 5699 5697 5695 5692 5690 5688 5685 5682 5680 5678 5675 5672 5668 5664 5661 5658 5654 5650 5645 5641 5638 5635 5632 5629 5625 5621 5616 5612 5607 5602 5598 5594 5590 5586 5582 5579 5574 5568 5560 5553 5545 5538 5529 5520 5512 5503 5495 5487 5478 5470 5460 5449 5436 5424 5414 5407 5401 5394 5385 5376 5367 5360
5715 5714 5714 5714 5714 5713 5713 5712 5711 5711 5710 5709 5708 5707 5706 5705 5704 5702 5701 5699 5698 5696 5694 5692 5689 5687 5684 5682 5679 5677 5675 5672 5670 5667 5664 5661 5657 5654 5651 5647 5643 5639 5635 5631 5627 5623 5619 5616 5612 5607 5603 5598 5593 5589 5585 5581 5577 5573 5569 5566 5560 5555 5548 5541 5535 5528 5519 5509 5500 5491 5482 5472 5463 5455 5445 5434 5421 5408 5398 5390 5383 5376 5367 5359 5350
5708 5707 5707 5707 5706 5706 5705 5705 5704 5704 5703 5702 5701 5700 5699 5698 5696 5695 5693 5692 5690 5688 5686 5684 5681 5679 5677 5674 5671 5669 5667 5665 5662 5659 5657 5654 5650 5647 5644 5641 5636 5632 5628 5624 5619 5615 5610 5606 5603 5598 5594 5590 5585 5580 5576 5571 5567 5563 5558 5555 5551 5546 5540 5533 5526 5521 5515 5508 5500 5491 5481 5471 5461 5452 5444 5435 5423 5410 5397 5385 5375 5366 5358 5352 5344
5700 5700 5699 5699 5699 5699 5698 5697 5697 5696 5695 5695 5694 5693 5692 5691 5689 5688 5686 5684 5682 5680 5678 5676 5674 5671 5669 5667 5664 5662 5660 5657 5654 5651 5649 5646 5644 5641 5637 5634 5630 5625 5621 5617 5612 5607 5603 5598 5594 5589 5585 5581 5576 5571 5566 5561 5557 5552 5547 5543 5539 5534 5529 5523 5516 5509 5503 5498 5491 5482 5474 5466 5457 5447 5438 5431 5422 5412 5400 5387 5373 5362 5351 5344 5338
5693 5693 5692 5692 5692 5691 5691 5690 5690 5689 5688 5688 5687 5686 5685 5683 5682 5680 5678 5676 5674 5672 5670 5668 5666 5664 5661 5659 5657 5655 5652 5649 5646 5643 5641 5639 5637 5634 5630 5626 5623 5618 5614 5610 5605 5601 5596 5591 5586 5581 5576 5572 5567 5562 5557 5552 5546 5542 5537 5532 5527 5521 5516 5511 5505 5499 5492 5486 5479 5472 5464 5457 5450 5442 5433 5424 5416 5408 5400 5389 5375 5362 5350 5339 5331
5686 5686 5685 5685 5685 5684 5684 5683 5683 5682 5682 5681 5680 5679 5677 5676 5674 5672 5670 5668 5666 5664 5663 5661 5658 5656 5654 5652 5650 5647 5644 5642 5639 5636 5633 5631 5629 5626 5622 5619 5615 5611 5607 5602 5598 5594 5589 5584 5579 5574 5569 5564 5559 5554 5548 5543 5538 5532 5527 5521 5515 5510 5505 5499 5493 5487 5481 5475 5468 5461 5454 5447 5441 5435 5427 5418 5409 5400 5393 5384 5374 5362 5351 5339 5328
5679 5678 5678 5678 5678 5677 5677 5676 5676 5675 5674 5674 5672 5671 5670 5668 5666 5664 5662 5661 5659 5657 5655 5653 5651 5649 5647 5644 5642 5640 5637 5634 5631 5628 5626 5623 5621 5618 5614 5611 5607 5604 5599 5595 5591 5587 5582 5578 5573 5567 5562 5557 5551 5545 5539 5534 5529 5523 5517 5512 5506 5500 5495 5489 5482 5476 5470 5464 5458 5452 5445 5437 5431 5425 5418 5410 5402 5393 5384 5375 5366 5358 5349 5340 5330
5671 5671 5671 5671 5670 5670 5669 5669 5668 5668 5667 5666 5664 5663 5661 5660 5658 5656 5655 5653 5651 5649 5647 5645 5643 5641 5639 5637 5635 5632 5630 5627 5623 5621 5618 5616 5613 5610 5606 5603 5599 5595 5591 5587 5583 5579 5575 5571 5566 5560 5555 5549 5543 5537 5531 5525 5520 5514 5508 5503 5497 5492 5485 5479 5472 5466 5460 5455 5449 5443 5436 5428 5421 5414 5408 5401 5393 5385 5376 5367 5358 5350 5343 5336 5327
5664 5664 5664 5664 5663 5663 5662 5661 5661 5660 5659 5657 5656 5655 5653 5652 5650 5648 5647 5645 5643 5641 5639 5637 5635 5634 5632 5630 5628 5625 5622 5619 5616 5614 5611 5608 5605 5602 5598 5594 5590 5586 5583 5579 5575 5571 5567 5563 5558 5552 5547 5541 5535 5529 5523 5517 5511 5506 5501 5495 5489 5483 5476 5470 5464 5458 5453 5447 5441 5435 5429 5421 5413 5405 5398 5392 5384 5377 5370 5362 5353 5344 5338 5333 5325
5657 5657 5657 5657 5656 5655 5655 5654 5653 5652 5651 5649 5648 5647 5645 5643 5642 5640 5639 5637 5635 5633 5631 5630 5628 5627 5625 5623 5620 5617 5615 5612 5609 5606 5604 5600 5597 5593 5590 5586 5582 5578 5574 5570 5566 5562 5558 5554 5549 5544 5538 5533 5527 5521 5516 5510 5504 5498 5492 5486 5481 5474 5468 5462 5457 5451 5446 5440 5434 5428 5421 5414 5407 5399 5391 5384 5376 5369 5362 5355 5348 5341 5334 5329 5324
5650 5650 5649 5649 5648 5647 5646 5645 5644 5643 5642 5641 5639 5638 5637 5635 5634 5632 5631 5629 5627 5626 5624 5623 5621 5619 5617 5615 5613 5610 5607 5604 5601 5599 5596 5592 5588 5585 5581 5577 5574 5570 5566 5562 5558 5554 5549 5544 5540 5535 5529 5524 5519 5513 5508 5502 5496 5490 5484 5478 5472 5466 5461 5455 5449 5443 5438 5432 5426 5421 5415 5408 5401 5394 5387 5379 5370 5363 5355 5347 5341 5335 5329 5323 5319
5642 5642 5641 5640 5639 5639 5638 5637 5636 5634 5633 5632 5631 5629 5628 5627 5626 5625 5623 5622 5620 5618 5617 5616 5614 5612 5609 5607 5604 5602 5599 5596 5593 5590 5587 5584 5581 5577 5573 5569 5566 5562 5558 5554 5550 5545 5541 5536 5531 5527 5521 5516 5510 5505 5499 5493 5487 5481 5475 5470 5465 5459 5453 5447 5441 5435 5430 5424 5419 5414 5408 5402 5396 5389 5382 5374 5366 5358 5350 5343 5335 5329 5324 5318 5313
5634 5633 5632 5632 5631 5630 5629 5628 5627 5626 5624 5624 5622 5622 5621 5620 5618 5617 5615 5614 5613 5611 5609 5607 5605 5603 5601 5598 5596 5593 5591 5588 5585 5582 5579 5577 5573 5569 5565 5562 5558 5554 5550 5546 5542 5537 5533 5528 5524 5519 5514 5508 5503 5497 5492 5486 5479 5473 5467 5462 5457 5452 5446 5441 5435 5429 5424 5418 5412 5407 5402 5396 5390 5383 5376 5370 5362 5353 5346 5339 5332 5325 5320 5314 5308
5626 5625 5624 5623 5622 5621 5620 5619 5618 5617 5617 5616 5615 5614 5613 5612 5610 5609 5607 5606 5604 5602 5600 5598 5597 5595 5592 5590 5587 5585 5582 5580 5577 5574 5572 5568 5564 5560 5557 5554 5550 5546 5541 5537 5533 5529 5524 5520 5516 5511 5506 5501 5496 5491 5486 5480 5474 5467 5461 5455 5450 5445 5440 5434 5429 5423 5418 5412 5406 5401 5396 5390 5384 5377 5371 5364 5357 5350 5342 5335 5328 5322 5316 5311 5305
5617 5616 5616 5615 5614 5613 5612 5611 5610 5609 5609 5608 5607 5606 5605 5603 5602 5601 5599 5597 5596 5594 5592 5590 5588 5586 5584 5581 5579 5576 5574 5571 5568 5566 5563 5560 5555 5552 5549 5545 5541 5537 5533 5529 5525 5521 5517 5512 5508 5503 5499 5494 5489 5484 5478 5472 5467 5461 5455 5448 5443 5438 5433 5428 5423 5417 5412 5407 5401 5396 5390 5384 5378 5372 5365 5359 5352 5345 5338 5332 5326 5319 5313 5307 5301
5609 5608 5607 5606 5605 5605 5604 5603 5602 5601 5600 5599 5598 5597 5596 5595 5593 5592 5591 5589 5587 5585 5583 5582 5580 5578 5575 5573 5570 5568 5565 5562 5559 5557 5555 5550 5546 5543 5540 5536 5532 5528 5524 5520 5516 5513 5509 5504 5500 5495 5490 5485 5480 5475 5470 5464 5459 5453 5448 5442 5437 5431 5426 5421 5416 5411 5406 5401 5396 5391 5385 5379 5373 5366 5359 5353 5347 5340 5334 5328 5323 5317 5311 5305 5298
5601 5600 5599 5598 5597 5597 5596 5595 5594 5593 5592 5591 5590 5589 5588 5586 5585 5583 5582 5581 5579 5577 5575 5573 5571 5569 5566 5564 5561 5559 5556 5553 5551 5548 5545 5541 5537 5534 5531 5526 5523 5519 5515 5511 5507 5503 5499 5495 5491 5486 5481 5476 5471 5466 5461 5456 5451 5445 5441 5436 5431 5425 5420 5415 5410 5404 5399 5394 5390 5385 5380 5374 5368 5362 5355 5348 5341 5335 5329 5324 5319 5314 5309 5303 5297
5593 5592 5591 5591 5590 5589 5588 5587 5586 5585 5584 5583 5582 5581 5580 5578 5577 5575 5574 5573 5571 5568 5566 5564 5562 5560 5557 5555 5552 5550 5548 5545 5542 5540 5536 5532 5528 5525 5521 5517 5514 5510 5506 5502 5498 5494 5490 5486 5481 5476 5471 5466 5462 5457 5452 5448 5443 5438 5433 5429 5424 5419 5414 5409 5404 5399 5393 5389 5384 5379 5374 5369 5363 5358 5351 5344 5337 5331 5325 5320 5315 5311 5306 5301 5295
5586 5585 5584 5583 5582 5581 5580 5579 5578 5577 5576 5575 5574 5573 5571 5569 5568 5567 5565 5564 5562 5560 5557 5554 5552 5551 5548 5546 5543 5541 5539 5536 5533 5530 5527 5522 5518 5515 5511 5508 5505 5501 5497 5493 5489 5485 5480 5475 5471 5466 5462 5457 5453 5449 5445 5441 5436 5431 5427 5422 5418 5413 5408 5404 5399 5393 5388 5384 5379 5374 5369 5363 5358 5352 5347 5340 5333 5327 5321 5316 5312 5308 5303 5298 5293
5577 5576 5576 5575 5574 5573 5572 5571 5570 5569 5567 5566 5565 5564 5563 5561 5560 5558 5557 5555 5554 5551 5548 5546 5543 5541 5539 5536 5534 5532 5529 5527 5524 5521 5518 5513 5508 5505 5502 5498 5495 5491 5487 5483 5479 5475 5470 5466 5461 5457 5453 5449 5445 5441 5437 5433 5429 5424 5420 5415 5411 5407 5403 5398 5393 5388 5383 5379 5374 5369 5364 5358 5353 5348 5342 5336 5329 5322 5317 5312 5309 5305 5301 5296 5291
5569 5568 5567 5566 5565 5565 5563 5562 5561 5560 5559 5558 5557 5555 5554 5553 5551 5550 5548 5546 5544 5542 5540 5537 5534 5532 5529 5527 5524 5522 5519 5517 5514 5511 5508 5503 5499 5495 5492 5488 5485 5481 5477 5473 5469 5465 5461 5456 5452 5448 5444 5441 5437 5433 5429 5425 5421 5417 5413 5408 5404 5401 5396 5392 5387 5383 5378 5374 5369 5364 5359 5353 5348 5343 5338 5332 5326 5319 5313 5309 5306 5302 5298 5294 5290
5561 5560 5559 5558 5557 5557 5555 5554 5553 5552 5550 5549 5548 5546 5545 5544 5542 5540 5538 5537 5534 5532 5530 5527 5525 5522 5519 5516 5514 5511 5509 5506 5503 5500 5497 5493 5489 5486 5483 5479 5475 5471 5467 5463 5459 5455 5451 5447 5443 5440 5436 5433 5429 5425 5422 5418 5414 5410 5406 5402 5398 5394 5390 5386 5381 5377 5372 5368 5364 5359 5354 5349 5343 5338 5333 5328 5322 5316 5311 5306 5303 5300 5296 5292 5288
5552 5552 5551 5550 5549 5548 5546 5545 5544 5543 5542 5540 5539 5537 5536 5534 5533 5531 5529 5527 5524 5522 5520 5517 5515 5512 5509 5506 5503 5501 5498 5495 5492 5489 5486 5483 5479 5476 5473 5469 5465 5462 5458 5453 5449 5445 5441 5438 5435 5431 5428 5424 5421 5418 5414 5411 5407 5403 5400 5396 5392 5388 5384 5380 5376 5372 5367 5363 5359 5354 5349 5344 5339 5334 5328 5323 5318 5312 5308 5304 5301 5298 5294 5290 5286
5544 5543 5541 5541 5540 5538 5537 5536 5535 5534 5533 5531 5529 5528 5526 5524 5523 5520 5518 5516 5514 5511 5509 5507 5504 5501 5498 5495 5492 5490 5486 5484 5481 5478 5475 5472 5468 5465 5462 5459 5455 5452 5448 5444 5440 5436 5432 5429 5426 5422 5419 5416 5413 5410 5407 5404 5401 5397 5393 5390 5387 5383 5379 5375 5371 5367 5362 5358 5354 5350 5345 5340 5335 5330 5324 5319 5313 5309 5305 5301 5298 5296 5293 5289 5285
5534 5533 5532 5531 5530 5529 5528 5527 5526 5525 5523 5521 5519 5517 5516 5514 5512 5509 5507 5505 5503 5500 5498 5495 5493 5489 5486 5483 5481 5478 5475 5472 5470 5467 5464 5461 5457 5454 5451 5448 5445 5442 5438 5435 5432 5428 5424 5420 5417 5414 5411 5408 5405 5403 5400 5397 5394 5391 5387 5384 5381 5377 5373 5369 5365 5361 5357 5353 5348 5344 5340 5335 5330 5325 5320 5315 5310 5305 5302 5299 5296 5294 5291 5287 5284
5524 5524 5523 5522 5521 5520 5519 5517 5516 5514 5512 5511 5509 5507 5505 5503 5501 5499 5496 5494 5492 5489 5487 5484 5481 5478 5475 5472 5470 5467 5465 5462 5459 5456 5453 5450 5447 5443 5440 5437 5435 5432 5429 5426 5423 5419 5415 5411 5408 5405 5403 5400 5398 5395 5392 5390 5387 5384 5381 5378 5375 5371 5368 5364 5360 5356 5352 5347 5343 5339 5335 5330 5326 5320 5315 5311 5306 5302 5299 5296 5294 5292 5289 5287 5284
5515 5514 5513 5512 5511 5510 5508 5507 5505 5503 5502 5500 5498 5496 5494 5492 5490 5488 5486 5483 5481 5478 5476 5473 5470 5466 5464 5461 5459 5456 5454 5451 5448 5445 5442 5439 5437 5434 5430 5428 5426 5423 5420 5417 5414 5410 5406 5402 5399 5397 5395 5393 5390 5387 5384 5382 5380 5377 5375 5372 5369 5365 5362 5358 5355 5351 5347 5343 5338 5334 5329 5325 5321 5316 5311 5307 5302 5299 5295 5293 5291 5289 5287 5285 5283
5505 5504 5503 5501 5500 5499 5498 5496 5494 5493 5491 5489 5487 5486 5484 5481 5479 5477 5474 5472 5469 5467 5464 5461 5458 5455 5452 5450 5447 5445 5442 5439 5436 5433 5431 5429 5426 5423 5421 5418 5416 5413 5410 5407 5404 5401 5398 5395 5392 5389 5386 5384 5381 5379 5376 5374 5373 5370 5368 5366 5363 5359 5356 5353 5349 5345 5342 5338 5334 5329 5325 5320 5316 5311 5307 5302 5298 5295 5292 5289 5287 5286 5284 5282 5281
5494 5493 5492 5491 5489 5488 5487 5485 5483 5482 5480 5478 5477 5475 5472 5470 5468 5466 5463 5460 5458 5455 5453 5450 5447 5444 5442 5439 5437 5434 5432 5429 5425 5423 5421 5418 5416 5413 5410 5408 5405 5403 5400 5397 5394 5392 5389 5387 5385 5381 5378 5375 5373 5371 5368 5366 5364 5362 5361 5359 5356 5353 5350 5346 5343 5339 5336 5332 5329 5325 5320 5315 5311 5307 5303 5298 5294 5291 5288 5286 5284 5282 5281 5279 5278
5483 5482 5480 5479 5478 5477 5475 5474 5472 5470 5469 5467 5465 5463 5461 5459 5456 5454 5452 5449 5447 5444 5442 5439 5436 5433 5431 5429 5426 5424 5421 5418 5415 5413 5410 5407 5405 5402 5399 5396 5394 5391 5389 5386 5384 5382 5380 5379 5377 5374 5370 5367 5364 5362 5360 5358 5356 5354 5352 5350 5348 5346 5343 5340 5336 5333 5330 5326 5323 5319 5315 5310 5306 5302 5297 5293 5289 5286 5284 5281 5279 5278 5277 5276 5275
5471 5470 5469 5468 5467 5465 5464 5462 5460 5458 5457 5455 5453 5451 5449 5447 5445 5442 5440 5437 5435 5432 5430 5427 5424 5422 5420 5417 5415 5413 5410 5407 5404 5401 5399 5396 5393 5390 5387 5385 5382 5380 5378 5376 5374 5372 5371 5370 5368 5365 5362 5359 5356 5354 5351 5349 5348 5345 5344 5342 5340 5338 5336 5333 5329 5326 5323 5319 5316 5313 5309 5305 5301 5296 5292 5288 5284 5281 5279 5277 5275 5274 5273 5272 5271
5459 5458 5457 5456 5455 5453 5451 5450 5448 5446 5445 5443 5441 5439 5437 5435 5432 5430 5428 5425 5422 5420 5417 5415 5412 5410 5408 5406 5404 5401 5398 5395 5392 5389 5387 5384 5381 5378 5376 5373 5371 5369 5367 5366 5364 5363 5362 5361 5359 5356 5354 5351 5349 5346 5344 5341 5339 5337 5335 5334 5332 5330 5328 5325 5322 5319 5316 5312 5309 5306 5302 5299 5295 5291 5286 5282 5279 5276 5274 5272 5270 5269 5268 5267 5267
5447 5446 5445 5444 5442 5441 5439 5437 5435 5434 5432 5430 5428 5426 5424 5422 5420 5418 5415 5412 5410 5408 5405 5402 5400 5398 5395 5393 5391 5388 5386 5384 5381 5378 5375 5372 5369 5367 5365 5362 5360 5358 5357 5355 5354 5353 5352 5351 5349 5347 5345 5343 5341 5339 5336 5334 5331 5329 5327 5325 5324 5322 5320 5317 5315 5312 5309 5306 5302 5299 5296 5292 5289 5285 5281 5277 5273 5271 5269 5267 5265 5264 5263 5262 5262
5434 5433 5432 5431 5429 5428 5426 5424 5423 5421 5419 5417 5415 5413 5411 5409 5407 5405 5402 5400 5398 5395 5392 5390 5388 5385 5383 5381 5378 5376 5374 5372 5370 5367 5363 5360 5358 5356 5353 5351 5349 5348 5346 5345 5344 5343 5342 5341 5339 5337 5336 5334 5333 5331 5328 5326 5323 5321 5319 5317 5316 5314 5311 5309 5307 5305 5302 5299 5296 5292 5289 5286 5282 5278 5274 5270 5267 5265 5263 5261 5260 5258 5257 5257 5256
5421 5420 5418 5417 5416 5414 5412 5410 5409 5407 5405 5403 5402 5400 5397 5395 5394 5391 5389 5387 5385 5382 5379 5377 5375 5373 5370 5368 5366 5364 5362 5359 5357 5354 5351 5349 5346 5345 5343 5341 5339 5337 5336 5335 5334 5333 5332 5331 5330 5328 5327 5326 5324 5322 5320 5317 5315 5314 5312 5310 5308 5306 5303 5301 5299 5297 5295 5292 5289 5286 5283 5279 5276 5272 5268 5264 5261 5259 5256 5255 5253 5252 5251 5251 5251